DELTA 1 DEB, 12217

Orbit data source: Space-Track

DELTA 1 DEB, 12217 is space debris in SSO originally from a launch on Sun, 05 Mar 1978 UTC launched from the Air Force Western Test Range (AFWTR). Debris objects in space refer to the collection of defunct objects orbiting the Earth. Examples of debris include non-operational satellites, rocket bodies, and fragments generated from explosions, collisions, or faulty payload assembly.

Loading next visibility...
Identifier
12217, 1978-026BJ
Orbit
SSO
Country
Flag of USUS
Related business
Manufacturer
Unknown
Mission
Spacecraft
Bus & Motor
Unknown
Mass
Unknown
Launch date (UTC)
1978-03-05 (48 years ago)
Launch vehicle
Unknown
Launch site
Air Force Western Test Range (AFWTR)
Object type
Payload
Rocket body
Debris
Shape & HBR
Unknown shape, 0.1 m
Radar Cross Section
Medium (>0.1 m² and <1 m²)

Expand to show TLE details & history
Last TLE update: 3 days ago

TLE from 3 days ago
0 DELTA 1 DEB
1 12217U 78026BJ  26171.02463892  .00000426  00000-0  20397-3 0  9993
2 12217  98.9403 196.3194 0021518 134.3814 256.4803 14.24269835340809
Epoch: 2026-06-20T00:35Z
TLE epoch observation values (Epoch: 2026-06-20T00:35:28.802Z)
Latitude
30.26398°
Longitude
-86.03475°
Altitude
818.388 km
Speed
7.445 km/s
True Right ascension
12h 44m 19s
True Declination
30° 06' 57"
Sunlit
Object was in daylight at epoch
Visualization orbit readout
Latitude
Unknown
Longitude
Unknown
Altitude
Unknown
Speed
Unknown
Apparent Right ascension
Unknown
Apparent Declination
Unknown
Sunlit
N/A
Visualization observer readout
Local Sidereal Time
06:36:10
Azimuth
Unknown
Elevation
Unknown
Doppler factor
Unknown
Orbital elements
Apogee altitude
823.576 km
Perigee altitude
792.649 km
Semi-major axis
7,186.25 km
Eccentricity
0.00215
Inclination
98.9403°
RAAN
196.3194°
Arg. of periapsis
134.3814°
True anomaly
256.24071°
Mean anomaly
256.4803°
Eccentric anomaly
256.36049°
Mean motion
3.56279 °/min
Orbital period
101.04 mins
BSTAR
0.00020397
Loading maneuver chart data...
Computing Atmospheric mass density...

Documentation

Showing up to 5 results
|